Location: Powder Track
(41.8531°N, 72.3584°W)
Time: 09:29:49
(UTC+00:00)

Transit 4A - Pass Details

Date: 10 August 2021
Orbit: 871 x 974 km, 66.8° (Epoch: 20 September)

Event Time Altitude Azimuth Distance (km) Brightness Sun altitude
Rises 05:05:42 0° 278° (W) 3,469 11.0 -32.6°
Reaches altitude 10° 05:10:35 10° 314° (NW) 2,525 10.6 -32.5°
Maximum altitude 05:12:03 11° 329° (NNW) 2,459 10.7 -32.5°
Drops below altitude 10° 05:13:32 10° 344° (NNW) 2,525 10.9 -32.5°
Sets 05:18:26 0° 20° (NNE) 3,471 11.9 -32.4°
